Stations météo

Publicité
Paris/Charles De Gaulle, France (7157): Température de l'air & dewpoint: 14.09.2018 07:00:00 - 20.09.2018 07:00:00 (CEST)Paris/Charles De Gaulle, France (7157): Température de l'air 5cm: 14.09.2018 07:00:00 - 20.09.2018 07:00:00 (CEST)Paris/Charles De Gaulle, France (7157): Température de l'air -20cm & Température de l'air -100cm: 14.09.2018 07:00:00 - 20.09.2018 07:00:00 (CEST)Paris/Charles De Gaulle, France (7157): Vitesse du vent & gusts: 14.09.2018 07:00:00 - 20.09.2018 07:00:00 (CEST)Paris/Charles De Gaulle, France (7157): Direction du vent: 14.09.2018 07:00:00 - 20.09.2018 07:00:00 (CEST)Paris/Charles De Gaulle, France (7157): reduced air pressure: 14.09.2018 07:00:00 - 20.09.2018 07:00:00 (CEST)Paris/Charles De Gaulle, France (7157): visibility: 14.09.2018 07:00:00 - 20.09.2018 07:00:00 (CEST)Paris/Charles De Gaulle, France (7157): Ensoleillement: 14.09.2018 07:00:00 - 20.09.2018 07:00:00 (CEST)Paris/Charles De Gaulle, France (7157): Quantités de précipitations: 14.09.2018 07:00:00 - 20.09.2018 07:00:00 (CEST)
Date & Time tt [°C] td [°C] tt 5cm [°C] tt -20cm [°C] tt -100cm [°C] ff [km/h] ff [knt] fx [km/h] fx [knt] dd ppp [hPa] vv [km] sd [min] rr [mm]
20.09.2018 07:00:00 15,2 12,5 14,3 20,5 19,6 9 5 23 12 S 1019,4 25 0 0,0
20.09.2018 06:00:00 15,7 12,6 14,5 20,7 19,6 10 6 22 12 S 1019,3 25 0 0,0
20.09.2018 05:00:00 15,7 12,6 14,3 20,9 19,6 10 5 27 15 S 1019,5 25 0 0,0
20.09.2018 04:00:00 16,2 12,7 13,9 21,1 19,6 8 5 16 9 S 1019,4 25 0 0,0
20.09.2018 03:00:00 16,9 12,6 15,3 21,3 19,6 10 6 19 10 S 1019,5 25 0 0,0
20.09.2018 02:00:00 17,6 12,7 15,6 21,5 19,6 9 5 22 12 S 1019,4 25 0 0,0
20.09.2018 01:00:00 18,3 12,7 16,7 21,7 19,6 10 5 27 15 S 1019,5 25 0 0,0
20.09.2018 00:00:00 19,2 12,9 16,9 21,9 19,6 11 6 24 13 S 1019,7 25 0 0,0
19.09.2018 23:00:00 19,8 12,5 18,0 22,0 19,6 9 5 22 12 S 1019,6 20 0 0,0
19.09.2018 22:00:00 20,4 12,6 18,4 22,1 19,6 9 5 33 18 SSW 1019,6 30 0 0,0
19.09.2018 21:00:00 21,2 12,3 20,0 22,1 19,6 11 6 35 19 SSW 1019,4 20 0 0,0
19.09.2018 20:00:00 22,4 12,1 21,8 22,0 19,6 16 9 30 16 WSW 1019,2 20 10 0,0
19.09.2018 19:00:00 23,6 11,9 24,0 21,8 19,6 20 11 36 20 W 1018,9 20 45 0,0
19.09.2018 18:00:00 25,0 12,2 26,6 21,6 19,6 21 11 36 19 W 1018,6 20 58 0,0
19.09.2018 17:00:00 24,4 12,0 25,6 21,2 19,6 21 11 41 22 WSW 1018,8 20 52 0,0
19.09.2018 16:00:00 25,0 12,6 27,3 20,9 19,6 24 13 39 21 SW 1018,6 20 57 0,0
19.09.2018 15:00:00 23,8 12,4 25,6 20,5 19,6 24 13 40 22 SW 1019,2 20 53 0,0
19.09.2018 14:00:00 23,3 12,0 24,8 20,3 19,6 23 13 41 22 SW 1019,5 20 52 0,0
19.09.2018 13:00:00 22,6 12,8 22,9 20,2 19,6 29 16 46 25 WSW 1019,7 20 51 0,0
19.09.2018 12:00:00 21,1 13,5 22,7 20,1 19,6 29 16 45 25 WSW 1019,7 20 29 0,0
19.09.2018 11:00:00 20,5 13,2 21,5 20,1 19,5 22 12 42 23 SW 1019,6 20 42 0,0
19.09.2018 10:00:00 19,8 13,9 20,7 20,2 19,6 18 10 33 18 SW 1018,9 25 57 0,0
19.09.2018 09:00:00 18,5 13,8 17,4 20,3 19,6 14 8 23 12 SSW 1018,9 25 35 0,0
19.09.2018 08:00:00 17,5 13,4 16,9 20,4 19,6 13 7 21 11 SW 1018,5 25 4 0,0
19.09.2018 07:00:00 17,8 13,7 17,1 20,5 19,6 12 7 22 12 WSW 1018,0 25 0 0,0
19.09.2018 06:00:00 18,4 14,3 17,7 20,6 19,6 16 8 34 18 WSW 1018,0 20 0 0,0
19.09.2018 05:00:00 18,4 15,3 15,9 20,7 19,6 10 5 42 23 WSW 1018,0 18 0 0,0
19.09.2018 04:00:00 17,6 15,9 15,4 20,9 19,6 10 5 18 10 SW 1017,8 18 0 0,0
19.09.2018 03:00:00 18,2 16,2 17,2 21,0 19,6 8 5 15 8 S 1017,6 19 0 0,0
19.09.2018 02:00:00 18,9 16,5 18,0 21,2 19,6 13 7 29 15 SSW 1017,4 20 0 0,0
19.09.2018 01:00:00 18,8 16,6 17,9 21,3 19,6 12 7 19 11 S 1017,2 20 0 0,0
19.09.2018 00:00:00 19,1 16,5 18,3 21,4 19,6 13 7 34 19 S 1016,9 20 0 0,0
18.09.2018 23:00:00 19,6 16,8 18,9 21,5 19,6 14 7 34 18 S 1017,1 23 0 0,0
18.09.2018 22:00:00 20,1 16,7 19,4 21,5 19,6 14 7 35 19 S 1016,8 27 0 0,0
18.09.2018 21:00:00 20,7 16,9 19,9 21,5 19,6 13 7 29 16 SSE 1016,5 20 0 0,0
18.09.2018 20:00:00 21,8 15,9 21,0 21,5 19,6 11 6 31 17 S 1015,7 29 22 0,0
18.09.2018 19:00:00 22,6 15,9 23,2 21,4 19,6 14 8 33 18 SSW 1015,3 34 28 0,0
18.09.2018 18:00:00 22,9 16,4 23,8 21,2 19,5 18 10 36 19 S 1015,7 25 1 0,0
18.09.2018 17:00:00 23,0 15,6 24,9 21,1 19,6 23 13 57 31 SW 1015,6 29 13 0,0
18.09.2018 16:00:00 23,1 15,4 22,1 20,9 19,6 25 14 40 22 SW 1015,8 24 8 0,0
18.09.2018 15:00:00 22,5 16,1 22,4 20,6 19,6 25 13 43 23 SW 1015,6 19 0 0,0
18.09.2018 14:00:00 23,2 16,0 24,8 20,4 19,6 21 12 36 19 SSW 1015,4 18 8 0,0
18.09.2018 13:00:00 23,2 15,5 24,8 20,1 19,6 19 11 43 23 SW 1015,3 18 33 0,0
18.09.2018 12:00:00 22,4 15,3 24,7 20,0 19,5 22 12 51 28 SSW 1015,2 18 54 0,0
18.09.2018 11:00:00 20,7 14,6 23,5 20,0 19,6 15 8 35 19 SSW 1014,9 20 53 0,0
18.09.2018 10:00:00 19,2 14,9 20,0 20,1 19,6 18 10 35 19 WSW 1014,7 20 50 0,0
18.09.2018 09:00:00 18,6 13,7 17,1 20,2 19,6 15 8 27 15 W 1014,1 25 4 0,0
18.09.2018 08:00:00 17,9 11,5 17,0 20,4 19,6 11 6 20 11 SSW 1013,3 25 0 0,0
18.09.2018 07:00:00 18,0 10,4 17,0 20,5 19,6 13 7 25 13 S 1012,5 25 0 0,0
18.09.2018 06:00:00 18,6 9,6 17,7 20,7 19,6 16 8 44 24 S 1012,1 25 0 0,0
18.09.2018 05:00:00 19,2 9,1 18,1 20,8 19,6 15 8 21 12 S 1011,8 25 0 0,0
18.09.2018 04:00:00 19,4 8,4 18,2 21,0 19,6 12 7 21 11 S 1011,8 25 0 0,0
18.09.2018 03:00:00 19,5 8,2 18,2 21,2 19,6 16 9 21 12 SSE 1011,9 25 0 0,0
18.09.2018 02:00:00 19,8 7,8 18,7 21,3 19,6 15 8 23 12 SSE 1012,2 25 0 0,0
18.09.2018 01:00:00 20,9 7,8 19,5 21,5 19,6 19 10 23 12 SE 1012,4 58 0 0,0
18.09.2018 00:00:00 21,8 8,0 19,8 21,6 19,6 18 10 34 19 SE 1012,6 25 0 0,0
17.09.2018 23:00:00 22,4 7,8 21,4 21,7 19,6 17 9 26 14 SE 1012,9 25 0 0,0
17.09.2018 22:00:00 23,8 7,4 22,6 21,7 19,6 17 9 37 20 SE 1013,0 25 0 0,0
17.09.2018 21:00:00 25,0 7,6 23,6 21,7 19,6 14 8 27 15 SE 1013,2 25 0 0,0
17.09.2018 20:00:00 26,5 7,0 25,1 21,6 19,6 11 6 33 18 SE 1013,2 25 16 0,0
17.09.2018 19:00:00 28,0 6,1 27,7 21,3 19,6 13 7 31 17 S 1013,6 47 60 0,0
17.09.2018 18:00:00 28,4 5,9 32,0 20,9 19,6 16 9 36 20 SSE 1013,9 25 60 0,0
17.09.2018 17:00:00 28,5 3,3 33,6 20,5 19,6 17 9 37 20 S 1014,6 25 60 0,0
17.09.2018 16:00:00 28,6 5,4 33,2 20,0 19,6 18 10 45 24 S 1015,4 25 60 0,0
17.09.2018 15:00:00 27,1 6,5 32,1 19,5 19,6 16 9 35 19 SE 1016,4 25 60 0,0
17.09.2018 14:00:00 26,2 7,7 30,8 19,2 19,6 16 8 42 23 SSE 1017,4 29 60 0,0
17.09.2018 13:00:00 25,1 8,1 30,5 18,9 19,6 19 11 44 24 SSE 1018,2 20 60 0,0
17.09.2018 12:00:00 23,9 7,9 27,8 18,7 19,6 14 8 33 18 SSE 1019,1 20 60 0,0
17.09.2018 11:00:00 21,3 8,5 24,5 18,8 19,7 12 7 30 16 SE 1019,6 20 60 0,0
17.09.2018 10:00:00 18,6 8,5 19,5 18,9 19,7 11 6 17 9 SSE 1019,7 20 60 0,0
17.09.2018 09:00:00 14,6 8,5 13,6 19,0 19,7 13 7 22 12 ESE 1019,7 20 54 0,0
17.09.2018 08:00:00 13,6 8,0 10,0 19,2 19,6 3 2 16 9 SE 1019,7 20 8 0,0
17.09.2018 07:00:00 12,2 7,9 9,1 19,5 19,7 8 4 10 6 E 1020,0 20 0 0,0
17.09.2018 06:00:00 12,3 7,8 9,2 19,7 19,7 10 6 11 6 N 1020,7 30 0 0,0
17.09.2018 05:00:00 12,5 8,8 8,8 19,9 19,7 8 4 11 6 SSE 1020,2 43 0 0,0
17.09.2018 04:00:00 12,8 7,9 10,3 20,1 19,7 8 4 11 6 E 1020,2 53 0 0,0
17.09.2018 03:00:00 13,0 7,9 9,7 20,3 19,7 8 4 11 6 E 1020,3 38 0 0,0
17.09.2018 02:00:00 13,8 7,3 9,7 20,5 19,7 4 2 7 4 ESE 1020,5 30 0 0,0
17.09.2018 01:00:00 15,1 7,4 11,4 20,7 19,7 7 4 9 5 NE 1020,7 30 0 0,0
17.09.2018 00:00:00 16,0 7,5 12,4 20,9 19,7 4 2 9 5 NE 1020,7 30 0 0,0
16.09.2018 23:00:00 17,3 7,6 13,1 21,1 19,7 4 2 9 5 ESE 1020,9 30 0 0,0
16.09.2018 22:00:00 18,6 7,4 14,6 21,1 19,7 6 3 9 5 ENE 1020,8 30 0 0,0
16.09.2018 21:00:00 20,5 7,1 18,6 21,1 19,7 6 3 8 5 NE 1020,3 30 0 0,0
16.09.2018 20:00:00 22,2 6,8 20,7 21,0 19,7 4 2 11 6 E 1019,9 30 0 0,0
16.09.2018 19:00:00 22,8 6,1 23,0 20,8 19,7 4 2 9 5 NNW 1019,7 30 0 0,0
16.09.2018 18:00:00 23,4 5,3 24,7 20,5 19,7 5 3 18 10 W 1019,5 30 8 0,0
16.09.2018 17:00:00 24,6 5,9 28,1 20,1 19,7 7 4 22 12 WNW 1019,4 53 37 0,0
16.09.2018 16:00:00 25,3 6,5 28,0 19,6 19,7 6 3 24 13 SSW 1019,8 30 45 0,0
16.09.2018 15:00:00 24,7 6,9 28,3 19,2 19,7 5 3 31 17 SSE 1020,5 38 44 0,0
16.09.2018 14:00:00 22,8 7,3 28,0 18,9 19,7 4 2 21 11 NNE 1020,7 30 54 0,0
16.09.2018 13:00:00 22,7 7,6 25,1 18,6 19,7 9 5 32 17 SSW 1021,1 30 56 0,0
16.09.2018 12:00:00 20,5 8,8 24,5 18,5 19,7 9 5 30 16 SSE 1021,9 30 47 0,0
16.09.2018 11:00:00 19,0 8,6 22,5 18,5 19,7 13 7 28 15 SE 1022,2 43 60 0,0
16.09.2018 10:00:00 17,2 8,6 19,0 18,6 19,8 8 4 16 8 SE 1022,5 30 60 0,0
16.09.2018 09:00:00 15,2 8,4 13,6 18,8 19,8 10 5 15 8 E 1022,5 37 60 0,0
16.09.2018 08:00:00 13,1 8,4 9,5 18,9 19,8 11 6 16 9 E 1022,4 30 9 0,0
16.09.2018 07:00:00 11,3 8,0 8,1 19,1 19,7 8 5 12 6 ESE 1022,6 30 0 0,0
16.09.2018 06:00:00 11,2 7,7 8,6 19,3 19,8 7 4 11 6 E 1022,7 30 0 0,0
16.09.2018 05:00:00 12,5 7,6 9,6 19,5 19,8 4 2 12 7 E 1022,9 30 0 0,0
16.09.2018 04:00:00 12,8 7,7 10,3 19,7 19,8 11 6 13 7 E 1023,2 30 0 0,0
16.09.2018 03:00:00 13,4 7,4 11,9 19,9 19,8 10 6 16 8 E 1023,5 30 0 0,0
16.09.2018 02:00:00 15,0 7,8 12,6 20,1 19,8 12 7 14 8 ESE 1023,7 30 0 0,0
16.09.2018 01:00:00 14,4 7,7 11,6 20,3 19,8 10 5 18 10 E 1024,6 60 0 0,0
16.09.2018 00:00:00 14,9 7,4 12,3 20,5 19,8 8 5 10 6 E 1024,9 30 0 0,0
15.09.2018 23:00:00 15,4 7,7 12,0 20,6 19,8 6 3 9 5 ENE 1025,1 30 0 0,0
15.09.2018 22:00:00 16,1 7,3 13,1 20,7 19,8 6 4 16 9 ENE 1025,3 30 0 0,0
15.09.2018 21:00:00 18,0 7,4 14,9 20,7 19,8 8 4 14 7 NE 1024,9 30 0 0,0
15.09.2018 20:00:00 19,5 7,2 18,1 20,6 19,8 6 3 16 9 ENE 1024,5 30 14 0,0
15.09.2018 19:00:00 20,4 7,4 21,1 20,4 19,8 4 2 14 8 NNE 1024,3 30 43 0,0
15.09.2018 18:00:00 21,0 7,2 22,3 20,1 19,9 7 4 16 8 N 1024,4 30 38 0,0
15.09.2018 17:00:00 20,5 7,8 22,2 19,7 19,8 10 5 22 12 N 1025,0 30 32 0,0
15.09.2018 16:00:00 22,4 8,1 24,8 19,4 19,8 9 5 26 14 S 1025,0 30 51 0,0
15.09.2018 15:00:00 21,6 9,5 21,7 19,1 19,9 8 4 26 14 WSW 1025,7 30 32 0,0
15.09.2018 14:00:00 18,8 9,3 20,5 18,9 19,8 7 4 24 13 W 1026,3 30 9 0,0
15.09.2018 13:00:00 18,1 10,2 20,2 18,6 19,9 7 4 23 12 SW 1026,7 30 19 0,0
15.09.2018 12:00:00 18,6 11,2 18,4 18,5 19,8 10 5 22 12 SW 1026,8 30 45 0,0
15.09.2018 11:00:00 17,0 11,3 20,6 18,5 19,9 7 4 18 10 W 1026,9 20 60 0,0
15.09.2018 10:00:00 14,7 10,1 17,0 18,6 19,9 10 5 28 15 SW 1026,6 20 55 0,0
15.09.2018 09:00:00 12,5 9,0 11,7 18,8 19,9 8 4 15 8 SW 1026,3 20 40 0,0
15.09.2018 08:00:00 10,5 8,4 8,2 19,0 19,9 6 3 12 7 S 1025,9 20 11 0,0
15.09.2018 07:00:00 10,3 8,4 7,7 19,2 19,9 4 2 13 7 WNW 1025,6 20 0 0,0
15.09.2018 06:00:00 10,5 8,3 7,7 19,5 19,9 6 4 9 5 SW 1025,2 30 0 0,0
15.09.2018 05:00:00 10,8 8,2 8,2 19,6 19,9 6 3 9 5 SW 1024,9 30 0 0,0
15.09.2018 04:00:00 11,5 8,4 9,8 19,9 19,9 9 5 11 6 W 1024,7 30 0 0,0
15.09.2018 03:00:00 11,4 8,1 10,0 20,1 19,9 8 4 10 6 WNW 1024,8 30 0 0,0
15.09.2018 02:00:00 11,5 7,8 10,0 20,3 19,9 7 4 12 7 WNW 1024,9 30 0 0,0
15.09.2018 01:00:00 11,8 7,9 9,9 20,5 19,9 5 3 8 5 NW 1024,7 30 0 0,0
15.09.2018 00:00:00 12,6 8,1 11,2 20,7 19,9 7 4 10 6 NW 1024,2 30 0 0,0
14.09.2018 23:00:00 13,7 8,3 12,3 20,8 19,9 7 4 9 5 WNW 1024,0 30 0 0,0
14.09.2018 22:00:00 14,7 8,6 13,7 20,9 19,9 8 5 16 9 NW 1023,8 30 0 0,0
14.09.2018 21:00:00 15,6 8,6 14,7 21,0 19,9 11 6 26 14 NNW 1023,2 30 0 0,0
14.09.2018 20:00:00 17,4 8,3 16,9 20,9 19,9 17 9 34 18 NNW 1022,4 30 20 0,0
14.09.2018 19:00:00 19,3 8,0 20,7 20,7 19,9 24 13 33 18 NNW 1021,8 30 54 0,0
14.09.2018 18:00:00 20,9 5,3 24,0 20,5 19,9 15 8 29 16 WNW 1021,5 30 54 0,0
14.09.2018 17:00:00 21,5 4,5 25,1 20,2 19,9 16 9 32 18 WNW 1021,6 30 60 0,0
14.09.2018 16:00:00 20,5 6,4 22,5 19,8 19,9 15 8 29 16 WNW 1021,8 30 27 0,0
14.09.2018 15:00:00 19,7 7,7 21,4 19,5 19,9 14 8 29 16 WNW 1021,9 30 30 0,0
14.09.2018 14:00:00 19,3 7,4 21,3 19,3 19,9 16 9 27 15 W 1022,2 30 29 0,0
14.09.2018 13:00:00 18,7 8,4 21,9 19,1 19,9 16 9 27 14 WNW 1022,4 30 42 0,0
14.09.2018 12:00:00 18,1 9,2 22,3 19,0 20,0 9 5 18 10 W 1022,8 30 47 0,0
14.09.2018 11:00:00 16,7 10,1 21,1 19,0 20,0 6 4 13 7 NW 1022,8 20 53 0,0
14.09.2018 10:00:00 15,0 10,8 17,7 19,1 20,0 5 3 14 7 N 1022,6 20 60 0,0
14.09.2018 09:00:00 12,1 10,3 12,3 19,3 19,9 9 5 12 6 NW 1022,6 9 54 0,0
14.09.2018 08:00:00 10,8 9,7 9,4 19,5 20,0 8 4 10 5 NW 1022,4 6 12 0,0
14.09.2018 07:00:00 10,3 9,4 9,0 19,6 20,0 9 5 11 6 NNW 1022,2 8 0 0,0

tt = Température de l'air
td = dewpoint
tt 5cm = Température de l'air 5cm
tt -20cm = Température de l'air -20cm
tt -100cm = Température de l'air -100cm
ff = Vitesse du vent
fx = gusts
dd = Direction du vent
ppp = reduced air pressure
vv = visibility
sd = Ensoleillement
rr = Quantités de précipitations

stations d'obs. à proximité